Starlink 30576

operational
NORAD ID: 58065 Int'l Des: 2023-158 Owner: SPXS Country: US Constellation: starlink
LEOCIRCULAR

Starlink 30576について

説明を読み込み中...

リアルタイム位置

3D地球を読み込み中...

次回通過

高度履歴

Altitude vs Time

uPlot chart will show altitude changes over time

軌道要素

1 58065U 23158Q 25260.01401343 -.00000142 00000-0 45386-5 0 9993
2 58065 43.0025 254.2439 0001230 277.1178 82.9525 15.02536291107405
Epoch: Sep 17, 2025 • Age: 20 hours

現在のステータス

高度 561.6 km
速度 7.59 km/s
衛星直下点 36.06°N, 81.59°E
打ち上げ日 Oct 13, 2023
運用期間 1.9 years
タイプ internet

技術仕様

分類 Payload
質量 730.00 kg
乾燥質量 700.00 kg
総質量 730.00 kg
長さ 0.30 m
直径 4.10 m
スパン 29.00 m
形状 Box + pan
製造者 SPXS
バスタイプ Starlink V2M
フェーズステータス In Orbit
所有者/国 SPXS/US

大規模コンステレーション

Loading constellations...